[[{"header":{"parameterUnit":"m.s-1","parameterCategory":1,"la1":30.2991,"la2":30.254,"lo1":-89.0895,"lo2":-89.0444,"dy":0.0017,"dx":0.0017,"nx":28,"ny":28,"refTime":"2025-04-22T03:00:00:Z","depth":0,"parameterNumber":2,"parameterNumberName":"U-component_of_WINDS"},"data":[0,0,0,0,0,0,0,0,0,0,0,0,0,0,0,0,0,0,0,0,0,0,0,0,0,0,0,0,0,0,0,0,0,0,0,0,0,0,0,0,0,0,0,0,0,0,0,0,0,0,0,0,0,0,0,0,0,0,-1.3704,-1.3704,0,-1.3757,-1.3757,-1.3758,-1.3779,-1.3779,-1.3778,-1.3778,-1.3834,-1.3836,-1.3838,0,0,0,0,0,0,0,0,0,0,0,0,0,-1.3622,-1.3624,-1.3704,-1.3704,-1.3705,-1.3757,-1.3757,-1.3758,-1.3779,-1.3779,-1.3778,-1.3778,-1.3834,-1.3836,-1.3838,0,0,0,0,0,0,0,0,0,0,0,0,0,-1.3665,-1.3624,-1.3703,-1.3721,-1.3723,-1.3757,-1.3758,-1.3758,-1.3779,-1.3779,-1.3778,-1.3778,-1.3833,-1.3836,-1.3838,-1.3858,0,0,-1.3846,-1.3847,0,0,0,0,0,0,0,0,-1.3662,-1.3668,-1.3718,-1.372,-1.3723,-1.3761,-1.3749,-1.3792,-1.3779,-1.3758,-1.3778,-1.3778,-1.381,-1.3815,-1.3825,-1.386,-1.3863,-1.3846,-1.3847,-1.3848,-1.3849,0,0,0,0,0,0,0,-1.3659,-1.3666,-1.3725,-1.3719,-1.3722,-1.3728,-1.3733,-1.3758,-1.3785,-1.376,-1.3761,-1.3767,-1.3811,-1.3823,-1.3827,-1.3864,-1.3846,-1.3848,-1.3849,-1.385,-1.3919,-1.392,0,0,0,0,0,0,-1.3653,-1.3663,-1.3723,-1.3726,-1.3691,-1.3729,-1.3736,-1.3749,-1.3784,-1.379,-1.3767,-1.3768,-1.3819,-1.3824,-1.3829,-1.3855,-1.3848,-1.3851,-1.3852,-1.3919,-1.3919,-1.392,0,0,0,0,0,0,-1.3651,-1.3658,-1.3721,-1.3695,-1.3704,-1.3731,-1.3745,-1.375,-1.3761,-1.379,-1.3795,-1.3774,-1.3819,-1.3825,-1.3851,-1.3857,-1.3852,-1.3854,-1.3918,-1.3919,-1.392,-1.3907,0,0,0,0,0,0,-1.3649,-1.3658,-1.3665,-1.3695,-1.3705,-1.3741,-1.3746,-1.3751,-1.3765,-1.3767,-1.3798,-1.3803,-1.3819,-1.3847,-1.3853,-1.386,-1.3856,-1.3918,-1.3919,-1.3919,-1.3907,-1.3907,-1.3907,0,0,0,0,0,-1.3646,-1.3659,-1.3665,-1.3672,-1.3714,-1.3741,-1.3747,-1.3765,-1.3766,-1.3774,-1.3792,-1.3802,-1.3855,-1.3849,-1.3856,-1.3864,-1.3918,-1.3919,-1.3919,-1.3907,-1.3907,-1.3907,0,0,0,0,0,0,-1.3629,-1.3663,-1.367,-1.3693,-1.3714,-1.3745,-1.3755,-1.3765,-1.3786,-1.3787,-1.3809,-1.3816,-1.3839,-1.3855,-1.3847,-1.3886,-1.3887,-1.389,-1.3875,-1.3875,-1.3875,-1.3871,-1.3858,0,0,0,0,0,-1.3628,-1.3646,-1.3676,-1.3693,-1.3703,-1.3727,-1.374,-1.3752,-1.3775,-1.3784,-1.3805,-1.3827,-1.3849,-1.3863,-1.3885,-1.3909,-1.3917,-1.3918,-1.3918,-1.3918,-1.392,-1.3935,-1.3936,-1.3922,-1.3922,-1.3922,0,0,-1.3626,-1.3647,-1.3657,-1.369,-1.3708,-1.3728,-1.3735,-1.3755,-1.377,-1.3787,-1.3812,-1.3829,-1.3855,-1.388,-1.3892,-1.3894,-1.3926,-1.3919,-1.3919,-1.3921,-1.3936,-1.3937,-1.3938,-1.3923,-1.3923,-1.3923,0,0,-1.3632,-1.365,-1.3666,-1.3684,-1.3711,-1.3727,-1.3731,-1.376,-1.3772,-1.3797,-1.3811,-1.383,-1.3867,-1.3885,-1.39,-1.3914,-1.3924,-1.3921,-1.3921,-1.3935,-1.3936,-1.3937,-1.3943,-1.3945,-1.3922,-1.3922,-1.3922,0,-1.3626,-1.3655,-1.3674,-1.3694,-1.3708,-1.3725,-1.3743,-1.3759,-1.3792,-1.3802,-1.3803,-1.3851,-1.387,-1.39,-1.3903,-1.3914,-1.392,-1.3917,-1.3934,-1.3936,-1.3937,-1.3943,-1.3945,-1.3922,-1.3922,-1.3922,-1.3922,0,-1.3647,-1.3668,-1.3678,-1.3709,-1.3725,-1.3743,-1.3766,-1.378,-1.3791,-1.3808,-1.3834,-1.3858,-1.3885,-1.3893,-1.3904,-1.3925,-1.3925,-1.393,-1.3932,-1.3937,-1.3943,-1.3945,-1.3921,-1.3921,-1.3922,-1.3922,0,0,-1.3644,-1.3685,-1.3689,-1.3703,-1.3734,-1.375,-1.3771,-1.3797,-1.3809,-1.3831,-1.3849,-1.3881,-1.3886,-1.3902,-1.3916,-1.3928,-1.3939,-1.3932,-1.3933,-1.3932,-1.3964,-1.396,-1.3962,-1.3945,-1.3946,-1.3946,-1.3962,0,-1.3654,-1.369,-1.3708,-1.3736,-1.3755,-1.3772,-1.379,-1.3811,-1.3827,-1.3847,-1.3865,-1.3887,-1.3892,-1.3902,-1.3915,-1.3935,-1.3945,-1.3934,-1.3963,-1.3964,-1.3956,-1.3965,-1.3961,-1.3974,-1.3964,-1.3965,-1.3965,0,-1.3671,-1.3693,-1.3723,-1.3752,-1.3761,-1.3776,-1.3802,-1.3821,-1.3846,-1.3857,-1.3875,-1.3889,-1.3912,-1.3912,-1.3944,-1.3936,-1.3949,-1.3961,-1.3962,-1.3965,-1.3964,-1.3969,-1.3979,-1.3981,-1.3968,-1.3968,-1.3968,0,-1.3666,-1.3703,-1.3725,-1.3737,-1.3772,-1.3783,-1.3798,-1.3823,-1.3838,-1.3861,-1.3871,-1.3897,-1.3911,-1.3931,-1.3952,-1.395,-1.3982,-1.3984,-1.3992,-1.3992,-1.3998,-1.3998,-1.4011,-1.4007,-1.4007,-1.4006,-1.4006,0,-1.3676,-1.3693,-1.3724,-1.3738,-1.3758,-1.378,-1.38,-1.3817,-1.3839,-1.3857,-1.3874,-1.3891,-1.3917,-1.3937,-1.3954,-1.3978,-1.3984,-1.3995,-1.3999,-1.3993,-1.3992,-1.4002,-1.4002,-1.4007,-1.4007,-1.4007,-1.4007,0,-1.3673,-1.3694,-1.372,-1.3751,-1.3759,-1.3773,-1.38,-1.3815,-1.3832,-1.3856,-1.3862,-1.3889,-1.3915,-1.3937,-1.3971,-1.3982,-1.4007,-1.4012,-1.3998,-1.4001,-1.4008,-1.4007,-1.4028,-1.4032,-1.4025,-1.4025,-1.4025,0,-1.3678,-1.3692,-1.3725,-1.3738,-1.3752,-1.3773,-1.3789,-1.3811,-1.3826,-1.3857,-1.3868,-1.3894,-1.3917,-1.3956,-1.398,-1.4006,-1.4012,-1.4017,-1.4016,-1.401,-1.4012,-1.4011,-1.4013,-1.4017,-1.4017,-1.4017,-1.4017,0,-1.3685,-1.3694,-1.3715,-1.3741,-1.3758,-1.3779,-1.3801,-1.3811,-1.3837,-1.3854,-1.388,-1.3897,-1.3931,-1.3957,-1.3986,-1.4003,-1.4015,-1.4017,-1.4021,-1.4015,-1.4007,-1.4012,-1.3998,-1.4017,-1.4017,-1.4017,-1.4017,-1.4017,-1.3686,-1.37,-1.3725,-1.3748,-1.3767,-1.3787,-1.3802,-1.3821,-1.3843,-1.3872,-1.3884,-1.3911,-1.3937,-1.3977,-1.3993,-1.4015,-1.4017,-1.4022,-1.4023,-1.4024,-1.4023,-1.4003,-1.402,-1.402,-1.402,-1.402,-1.4021,0,-1.3694,-1.3711,-1.3732,-1.3762,-1.3781,-1.3789,-1.3814,-1.3829,-1.3852,-1.3875,-1.3897,-1.3927,-1.3953,-1.3978,-1.4006,-1.4018,-1.4024,-1.4025,-1.4024,-1.4028,-1.402,-1.4014,-1.4019,-1.4019,-1.4019,-1.4019,-1.4019,-1.4019,-1.3701,-1.3724,-1.3737,-1.377,-1.3788,-1.3813,-1.3826,-1.3845,-1.3864,-1.3897,-1.3918,-1.3934,-1.3959,-1.3988,-1.4013,-1.402,-1.4029,-1.4028,-1.4037,-1.4029,-1.4028,-1.4028,-1.4023,-1.403,-1.403,-1.4043,-1.4043,-1.4043]},{"header":{"parameterUnit":"m.s-1","parameterCategory":1,"la1":30.2991,"la2":30.254,"lo1":-89.0895,"lo2":-89.0444,"dy":0.0017,"dx":0.0017,"nx":28,"ny":28,"refTime":"2025-04-22T03:00:00:Z","depth":0,"parameterNumber":3,"parameterNumberName":"V-component_of_WINDS"},"data":[0,0,0,0,0,0,0,0,0,0,0,0,0,0,0,0,0,0,0,0,0,0,0,0,0,0,0,0,0,0,0,0,0,0,0,0,0,0,0,0,0,0,0,0,0,0,0,0,0,0,0,0,0,0,0,0,0,0,3.8714,3.8714,0,3.8757,3.8757,3.8758,3.8766,3.8766,3.8766,3.8765,3.8805,3.8807,3.8808,0,0,0,0,0,0,0,0,0,0,0,0,0,3.8637,3.8638,3.8714,3.8714,3.8715,3.8756,3.8757,3.8758,3.8766,3.8766,3.8765,3.8765,3.8805,3.8807,3.8808,0,0,0,0,0,0,0,0,0,0,0,0,0,3.8674,3.8639,3.8714,3.8724,3.8726,3.8756,3.8757,3.8758,3.8766,3.8766,3.8765,3.8765,3.8804,3.8806,3.8808,3.8831,0,0,3.8815,3.8816,0,0,0,0,0,0,0,0,3.8672,3.8677,3.8722,3.8724,3.8725,3.8756,3.8745,3.8782,3.8766,3.8751,3.8765,3.8765,3.8789,3.8792,3.8801,3.8832,3.8834,3.8815,3.8816,3.8817,3.8818,0,0,0,0,0,0,0,3.8669,3.8675,3.8731,3.8723,3.8725,3.8726,3.8731,3.8752,3.8772,3.8752,3.8753,3.8758,3.879,3.8799,3.8802,3.8835,3.8815,3.8817,3.8818,3.8819,3.8887,3.8888,0,0,0,0,0,0,3.8665,3.8673,3.8729,3.8732,3.8697,3.8728,3.8733,3.8746,3.8772,3.8775,3.8758,3.8758,3.8796,3.88,3.8804,3.8832,3.8817,3.8819,3.882,3.8887,3.8888,3.8888,0,0,0,0,0,0,3.8664,3.867,3.8727,3.8703,3.871,3.873,3.8744,3.8747,3.8757,3.8777,3.878,3.8765,3.8796,3.8801,3.8824,3.8833,3.882,3.8822,3.8886,3.8887,3.8888,3.8888,0,0,0,0,0,0,3.8661,3.867,3.8679,3.8703,3.8711,3.8748,3.8745,3.8749,3.8761,3.8761,3.8783,3.8786,3.8796,3.8821,3.8826,3.8836,3.8823,3.8885,3.8887,3.8888,3.8887,3.8889,3.889,0,0,0,0,0,3.8659,3.8676,3.8679,3.8686,3.8723,3.8749,3.8753,3.8765,3.8762,3.8771,3.8783,3.8786,3.8832,3.8824,3.8829,3.884,3.8885,3.8886,3.8887,3.8887,3.8889,3.889,0,0,0,0,0,0,3.865,3.8679,3.8683,3.8709,3.8726,3.875,3.8762,3.8766,3.8784,3.8783,3.8796,3.8801,3.8824,3.8834,3.8825,3.8863,3.8858,3.8861,3.8855,3.8857,3.8859,3.8855,3.8825,0,0,0,0,0,3.8652,3.8671,3.8695,3.8715,3.8724,3.8741,3.8753,3.8761,3.8779,3.8786,3.88,3.8817,3.8835,3.8847,3.8865,3.8889,3.8894,3.8899,3.8901,3.8902,3.8904,3.8918,3.8921,3.8893,3.8893,3.8893,0,0,3.8654,3.8673,3.8684,3.8714,3.8729,3.8748,3.8747,3.8767,3.8781,3.8788,3.8812,3.8823,3.8843,3.8867,3.8879,3.8876,3.8913,3.8904,3.8904,3.8906,3.892,3.8922,3.8925,3.8894,3.8893,3.8893,0,0,3.8669,3.8685,3.8704,3.8719,3.8742,3.8754,3.8759,3.8782,3.879,3.8815,3.8821,3.8837,3.8869,3.8883,3.8894,3.8916,3.8919,3.8921,3.8928,3.8942,3.8945,3.8947,3.8955,3.8957,3.8923,3.8923,3.8923,0,3.8669,3.8699,3.8713,3.8733,3.8747,3.8756,3.8776,3.8789,3.8816,3.8825,3.8822,3.8863,3.8876,3.8905,3.891,3.8919,3.8924,3.8918,3.8943,3.8946,3.8948,3.8955,3.8958,3.8923,3.8923,3.8923,3.8923,0,3.8698,3.8719,3.8732,3.8759,3.8774,3.8794,3.881,3.8824,3.883,3.8842,3.8867,3.8884,3.8906,3.8914,3.892,3.8943,3.8941,3.8941,3.8936,3.895,3.8958,3.8961,3.8924,3.8924,3.8924,3.8924,0,0,3.8707,3.8744,3.8749,3.8762,3.8789,3.8805,3.8825,3.8848,3.8859,3.8878,3.8895,3.8922,3.8923,3.8935,3.8943,3.8956,3.8973,3.8954,3.8955,3.8957,3.9,3.9,3.9003,3.8975,3.8976,3.8976,3.8998,0,3.8725,3.8763,3.8777,3.8808,3.8827,3.8837,3.8855,3.8873,3.8885,3.8903,3.8915,3.8935,3.8934,3.8942,3.8954,3.8968,3.8981,3.8967,3.899,3.8991,3.8985,3.9007,3.9006,3.9026,3.9001,3.9002,3.9002,0,3.8751,3.8772,3.8805,3.8831,3.8839,3.8855,3.8878,3.8895,3.8916,3.8924,3.8939,3.8947,3.8968,3.8963,3.8992,3.8982,3.8992,3.9,3.9002,3.9004,3.8997,3.9009,3.9033,3.9036,3.9007,3.9006,3.9006,0,3.8754,3.8791,3.8816,3.8827,3.8857,3.8868,3.8881,3.8902,3.8915,3.8935,3.8944,3.8966,3.8977,3.8993,3.9006,3.9001,3.9035,3.903,3.9041,3.9041,3.9047,3.9047,3.9072,3.9055,3.9055,3.9055,3.9054,0,3.8773,3.8793,3.8818,3.8833,3.8856,3.8872,3.8894,3.8907,3.8926,3.8943,3.8953,3.8969,3.8985,3.9003,3.9014,3.9037,3.9042,3.9048,3.9051,3.9047,3.9046,3.9054,3.9053,3.9055,3.9055,3.9055,3.9055,0,3.878,3.8798,3.8826,3.8854,3.8861,3.8877,3.89,3.8915,3.8928,3.895,3.8956,3.8976,3.8998,3.9013,3.9041,3.9048,3.9073,3.9075,3.9066,3.9067,3.9078,3.9077,3.9109,3.9114,3.9093,3.9093,3.9093,0,3.8791,3.8807,3.8837,3.885,3.8864,3.8885,3.8899,3.8916,3.893,3.8956,3.8968,3.8991,3.901,3.9045,3.9061,3.9083,3.9085,3.9095,3.9088,3.9085,3.9085,3.9084,3.9086,3.9096,3.9096,3.9096,3.9096,0,3.8808,3.8816,3.8838,3.8862,3.888,3.89,3.892,3.893,3.8949,3.8965,3.8989,3.9004,3.9033,3.9056,3.9079,3.9092,3.9097,3.9099,3.9102,3.9099,3.9093,3.9097,3.9069,3.9098,3.9097,3.9097,3.9097,3.9097,3.8817,3.8832,3.8856,3.888,3.8897,3.8916,3.8932,3.8948,3.8968,3.8994,3.9003,3.9027,3.9048,3.9081,3.9093,3.9112,3.9111,3.9117,3.9118,3.9119,3.9119,3.9091,3.9117,3.9117,3.9117,3.9116,3.9116,0,3.8835,3.8851,3.8873,3.8902,3.892,3.8926,3.8948,3.8963,3.8985,3.9005,3.9025,3.9052,3.9074,3.9093,3.9116,3.9128,3.9131,3.9133,3.9132,3.9135,3.9119,3.9113,3.9131,3.9131,3.9131,3.913,3.913,3.913,3.8846,3.8872,3.8884,3.8919,3.8935,3.896,3.8973,3.899,3.9006,3.9037,3.9056,3.9069,3.9089,3.9113,3.9134,3.9139,3.9147,3.9149,3.9154,3.9138,3.9136,3.9135,3.913,3.915,3.915,3.9169,3.917,3.917]}]]